Flag for Mexico Weather past 2 weeks in Mexicali, Baja California, Mexico

Now
93 °F

Sunny.


Feels Like: 106 °F
Forecast: 82 / 104 °F
Wind: 6 mph from East

Location: Imperial County Airport

Current Time: Jul 30, 2015 at 9:53:01 AM

Latest Report: Jul 30, 2015 at 8:53 AM


Visibility: 10 mi

Pressure: 29.91 "Hg

Humidity: 58%

Dew point: 76 °F

Location of MexicaliLocation

Historic Weather in Mexicali — Graph

°F

Mexicali temperature yesterday

Maximum temperature yesterday: 101 °F (at 1:53 PM)
Minimum temperature yesterday: 84 °F (at 4:53 AM)
Average temperature yesterday: 93 °F

Past Weeks' High & Low Weather Summary

 TemperatureHumidityPressure
High110 °F (Jul 25, 4:53 PM)94% (Jul 19, 2:53 AM)30.01 "Hg (Jul 19, 2:53 AM)
Low72 °F (Jul 27, 5:53 AM)6% (Jul 27, 3:53 PM)29.63 "Hg (Jul 21, 6:53 PM)
Average91 °F37%29.80 "Hg
* Reported Jul 15 8:53 AM — Jul 30 8:53 AM, Mexicali, Weather by CustomWeather, © 2015

Note: Actual official high and low records may vary slightly from our data, if they occured in-between our weather recording intervals... More about our weather records

Advertising

Mexicali weather history for previous 24 hours

 ConditionsComfort  
Time TempWeatherWind HumidityBarometerVisibility
8:53 AM
Thu, Jul 30
93 °FSunny.6 mph58%29.91 "Hg10 mi
7:53 AM89 °FSunny.No wind61%29.90 "Hg10 mi
6:53 AM85 °FClear.6 mph65%29.89 "Hg10 mi
5:53 AM84 °FClear.6 mph63%29.87 "Hg10 mi
4:53 AM85 °FClear.No wind61%29.85 "Hg10 mi
3:53 AM86 °FClear.7 mph57%29.85 "Hg10 mi
2:53 AM86 °FClear.6 mph55%29.85 "Hg10 mi
1:53 AM88 °FClear.No wind48%29.85 "Hg10 mi
12:53 AM91 °FClear.3 mph44%29.85 "Hg10 mi
11:53 PM
Wed, Jul 29
93 °FClear.3 mph40%29.85 "Hg10 mi
10:53 PM93 °FClear.6 mph41%29.85 "Hg10 mi
9:53 PM94 °FClear.8 mph41%29.85 "Hg10 mi
8:53 PM96 °FClear.9 mph35%29.83 "Hg10 mi
7:53 PM98 °FSunny.13 mph35%29.81 "Hg10 mi
6:53 PM100 °FSunny.10 mph33%29.79 "Hg10 mi
5:53 PM101 °FSunny.10 mph32%29.79 "Hg10 mi
4:53 PM101 °FSunny.13 mph33%29.80 "Hg10 mi
3:53 PM101 °FSunny.10 mph34%29.80 "Hg10 mi
2:53 PM100 °FSunny.13 mph35%29.84 "Hg10 mi
1:53 PM101 °FSunny.14 mph34%29.86 "Hg10 mi
12:53 PM99 °FSunny.N/A38%29.88 "Hg10 mi
11:53 AM96 °FSunny.No wind41%29.89 "Hg10 mi
10:53 AM93 °FSunny.8 mph50%29.89 "Hg10 mi
9:53 AM94 °FSunny.12 mph49%29.89 "Hg10 mi
Weather by CustomWeather, © 2015

See weather overviewHow to use our weather pages